This is the latest recevied weather packets stored in our database for station/object IU0SZS-10. If no packets are shown the sender has not sent any weather packets the latest 10 day(s).
| Time | Temp. | Humidity | Pressure | Rain* | Wind** | Luminosity | Snow |
|---|---|---|---|---|---|---|---|
| 1777481012 | 21.11° C | 36% | 915.8 hPa | - | - | - | - |
| 1777480111 | 20.56° C | 22% | 915.7 hPa | - | - | - | - |
| 1777479211 | 21.67° C | 21% | 915.8 hPa | - | - | - | - |
| 1777478354 | 21.67° C | 21% | 915.8 hPa | - | - | - | - |
| 1777478311 | 21.67° C | 21% | 915.8 hPa | - | - | - | - |
| 1777477411 | 19.44° C | 23% | 915.9 hPa | - | - | - | - |
| 1777476511 | 20° C | 21% | 915.9 hPa | - | - | - | - |
| 1777475610 | 20.56° C | 23% | 915.8 hPa | - | - | - | - |
| 1777474710 | 20.56° C | 23% | 916 hPa | - | - | - | - |
| 1777473810 | 21.11° C | 25% | 915.9 hPa | - | - | - | - |
| 1777472910 | 21.11° C | 22% | 916.1 hPa | - | - | - | - |
| 1777472010 | 21.67° C | 24% | 916.2 hPa | - | - | - | - |
| 1777471110 | 22.22° C | 23% | 916.2 hPa | - | - | - | - |
| 1777470209 | 22.78° C | 20% | 916.3 hPa | - | - | - | - |
| 1777469309 | 22.78° C | 18% | 916.5 hPa | - | - | - | - |
| 1777468409 | 22.78° C | 20% | 916.6 hPa | - | - | - | - |
| 1777467509 | 22.22° C | 22% | 916.7 hPa | - | - | - | - |
| 1777466609 | 21.67° C | 18% | 916.8 hPa | - | - | - | - |
| 1777465709 | 21.11° C | 19% | 916.7 hPa | - | - | - | - |
| 1777465097 | 21.67° C | 21% | 916.7 hPa | - | - | - | - |
| 1777464808 | 21.67° C | 21% | 916.7 hPa | - | - | - | - |
| 1777463952 | 22.22° C | 24% | 916.7 hPa | - | - | - | - |
| 1777463908 | 22.22° C | 24% | 916.7 hPa | - | - | - | - |
| 1777463052 | 21.11° C | 20% | 916.7 hPa | - | - | - | - |
| 1777463007 | 21.11° C | 20% | 916.7 hPa | - | - | - | - |
* Rain since midnight (hover to see other rain measurements)
** Current wind speed in m/s (hover to see current wind gust speed)